Dewpoint
-3 -5 -1 8 3 11 13 13 12 10 9 -1 1 2 7 11 11 12 12 12 12 11 11 12 12 11 12 12 12 12 12 10 7
-8 3 4 6 8 13 13 13 12 9 9 -2 5 5 9 11 11 12 12 12 10 10 8 7 8 9 9 11 12 12 12 12 12
-7 8 8 11 9 12 12 13 11 9 8 -3 5 6 8 10 11 11 11 8 7 9 5 5 6 6 5 7 8 8 10 11 11
-6 3 11 12 10 10 12 12 9 9 2 -2 5 6 9 11 10 11 10 7 8 9 8 2 1 1 1 -1 -2 -2 -1 1 5
-7 -5 3 11 12 12 12 11 9 7 -2 0 6 6 8 11 11 10 10 6 8 7 3 -0 -3 -4 -4 -4 -5 -5 -5 -5 -4
-7 -4 0 9 8 10 10 8 5 -2 2 3 6 7 11 10 10 10 7 7 7 6 1 -5 -8 -8 -8 -9 -10 -12 -12 -13 -13
3 -3 -3 1 6 8 6 1 -1 3 5 4 5 8 10 10 10 10 6 6 6 5 -2 -7 -9 -9 -10 -11 -13 -14 -14 -13 -14
4 -2 -4 -1 2 3 -0 -1 2 6 10 9 9 10 10 9 9 7 4 4 4 3 -3 -9 -11 -11 -11 -13 -13 -13 -15 -18 -19
8 9 4 6 3 9 6 9 10 10 10 9 9 9 9 8 7 6 3 4 -0 -2 -6 -10 -12 -12 -13 -13 -14 -17 -18 -19 -20
10 9 9 10 10 10 11 11 10 10 10 8 8 8 8 6 5 4 2 -3 -4 -5 -7 -10 -12 -12 -13 -14 -17 -18 -19 -20 -21
11 11 10 10 9 9 10 10 10 10 10 8 7 7 7 7 5 3 3 -3 -5 -5 -6 -10 -11 -13 -13 -16 -18 -19 -20 -20 -20
11 11 12 12 10 9 10 10 10 9 9 7 6 6 6 6 5 3 6 3 -4 -5 -7 -10 -11 -12 -14 -16 -17 -19 -18 -19 -19
11 12 12 12 12 10 10 10 10 9 8 7 6 7 8 7 6 3 3 5 0 -5 -10 -11 -12 -13 -14 -16 -17 -18 -18 -18 -17
10 11 11 11 11 12 10 10 10 8 7 7 6 8 8 8 6 4 -1 -1 1 -4 -7 -11 -12 -13 -14 -15 -16 -17 -17 -17 -17
12 11 11 11 11 11 11 10 10 9 8 7 6 8 9 8 7 7 0 -3 -4 -6 -7 -9 -11 -13 -14 -14 -15 -16 -16 -16 -16
12 12 12 12 11 11 12 11 10 8 8 8 6 7 9 9 8 7 3 -3 -3 -5 -7 -8 -10 -11 -12 -13 -13 -14 -14 -14 -15
9 11 12 12 12 12 11 11 11 9 8 7 7 7 7 8 8 7 4 -2 -3 -4 -6 -7 -9 -10 -10 -10 -11 -12 -12 -13 -14
11 9 10 12 12 11 11 10 11 9 9 8 8 7 6 5 4 6 5 -1 -2 -3 -5 -7 -8 -9 -9 -9 -9 -10 -10 -11 -13
8 12 11 11 12 12 11 11 10 9 9 9 8 8 7 6 3 3 2 0 -2 -3 -4 -5 -7 -8 -8 -8 -8 -8 -9 -11 -13
5 6 8 9 11 10 11 11 11 10 9 8 9 9 9 7 3 2 2 -1 -2 -3 -4 -4 -6 -7 -7 -7 -7 -8 -9 -11 -14
Wind_Speed
2 4 4 7 13 12 10 6 1 4 6 5 6 9 12 15 7 8 7 5 8 9 9 9 9 10 11 15 7 8 4 3 5
5 4 7 10 14 11 9 6 3 1 3 3 6 9 12 12 5 5 4 5 3 4 2 2 3 2 1 4 9 8 15 10 8
7 7 8 11 14 12 8 7 4 2 1 4 6 8 13 7 6 1 0 3 5 3 4 3 3 3 1 2 2 3 3 1 1
9 9 12 12 11 12 10 8 6 4 3 5 6 7 10 8 6 1 3 2 2 0 2 5 5 3 3 3 3 4 4 5 5
9 9 12 15 11 13 11 9 7 4 5 6 5 5 7 5 4 2 4 2 1 3 5 6 5 4 4 4 4 4 4 5 6
8 10 10 11 13 11 11 8 6 5 5 6 5 4 4 3 3 5 4 2 4 5 7 7 7 5 5 5 5 4 4 4 4
7 9 11 11 12 12 11 9 7 6 3 5 5 5 4 3 3 9 5 5 5 6 7 7 6 5 5 5 5 5 4 3 3
12 11 12 12 12 11 11 10 9 7 7 6 3 5 5 4 4 10 6 6 8 7 7 7 5 5 4 4 4 4 4 5 5
11 10 11 10 11 8 8 7 7 9 9 7 7 7 6 5 5 11 8 8 9 9 9 7 6 4 3 2 2 3 3 4 4
11 12 12 12 11 12 11 11 11 10 9 9 9 9 7 8 8 8 11 11 10 10 10 8 6 5 4 3 2 3 3 3 4
15 13 13 13 13 13 13 13 12 11 11 11 10 10 11 10 10 6 13 12 11 11 11 9 7 6 6 4 5 3 3 3 4
16 16 16 17 14 14 14 14 13 13 12 12 12 12 11 12 12 11 10 11 13 13 13 10 9 8 7 7 6 5 4 5 5
19 18 17 16 17 16 16 15 16 15 15 14 15 15 15 13 12 13 13 13 12 12 14 12 10 10 10 10 8 7 7 8 9
21 20 19 19 21 20 18 18 18 17 17 16 17 17 17 16 15 15 15 16 15 15 13 13 12 12 12 11 11 10 9 10 11
23 22 21 21 22 24 21 21 21 19 19 17 18 19 20 19 19 19 18 18 17 18 20 15 15 15 15 14 13 13 12 12 13
25 26 23 24 25 28 28 24 24 24 20 18 21 21 23 23 22 21 21 21 20 19 21 19 18 17 17 17 17 16 15 15 16
30 28 29 28 29 27 28 29 28 27 28 28 20 12 21 27 27 25 24 23 23 21 22 22 20 20 19 21 18 19 18 17 17
35 34 34 32 31 32 32 31 34 34 33 33 23 10 13 13 19 27 27 24 25 24 24 24 23 23 22 24 21 21 19 20 19
37 38 38 35 34 35 36 35 36 36 37 34 35 30 16 10 9 17 24 24 25 26 24 25 25 25 24 25 25 23 21 21 21
34 36 36 38 37 38 39 38 40 42 39 40 38 39 38 29 19 12 17 21 24 27 27 26 26 27 27 27 26 23 23 23 23
Wind_Direction
158 148 140 132 163 157 178 166 137 35 39 64 89 99 95 77 82 76 93 124 83 67 77 92 79 76 83 52 79 33 20 74 47
148 134 132 151 155 161 171 177 186 8 38 105 108 113 101 94 74 99 110 97 71 62 35 323 323 342 25 69 98 75 70 81 84
158 135 137 143 165 172 175 192 207 244 307 153 130 119 102 87 104 52 269 38 24 24 340 336 333 322 3 261 275 272 289 207 349
170 158 148 154 174 186 190 202 216 227 211 167 148 131 117 109 121 276 331 31 66 341 320 333 336 326 328 312 315 315 308 292 277
179 186 174 175 181 196 203 213 220 226 188 173 160 140 111 107 113 248 268 322 276 279 312 321 327 322 316 314 312 303 294 291 291
182 183 187 188 204 197 212 224 226 200 184 180 178 145 85 168 168 240 270 307 286 310 320 326 325 326 323 327 322 326 319 308 305
186 201 198 202 202 208 219 220 201 190 198 200 193 131 202 203 184 247 272 285 285 308 321 320 325 328 335 340 342 355 1 359 9
203 214 206 211 209 215 219 212 200 170 197 231 204 185 202 216 217 242 269 275 284 300 314 313 316 324 332 340 351 357 355 359 359
195 207 207 206 214 201 217 221 202 209 204 208 201 193 207 199 215 268 264 264 280 292 303 305 300 297 300 308 326 333 332 337 342
203 205 205 206 212 204 208 207 215 211 212 205 203 203 210 220 231 249 268 261 270 281 291 293 287 274 265 262 293 307 314 326 337
206 213 213 215 212 209 210 211 211 214 214 216 212 221 231 239 230 209 266 256 261 270 280 280 276 275 276 280 308 308 315 326 329
211 211 232 211 223 216 214 214 214 215 215 215 216 225 236 241 242 228 257 264 250 257 266 269 268 267 271 283 300 297 305 315 317
220 218 216 242 216 222 219 213 217 215 222 220 227 231 239 244 241 235 213 254 265 258 257 257 257 256 259 274 287 293 307 320 325
228 225 220 217 234 217 220 220 222 221 225 223 231 237 244 246 240 240 235 230 237 264 260 257 253 252 254 264 272 281 292 305 313
231 229 228 222 222 232 220 225 224 220 228 223 233 242 244 247 247 246 241 242 242 239 260 256 251 249 251 258 264 271 284 294 303
238 239 230 225 222 242 228 224 226 225 217 223 235 238 246 249 249 248 245 243 248 242 246 256 250 248 249 255 260 268 275 285 293
254 246 241 234 235 226 243 221 228 233 225 224 233 243 251 249 248 245 241 243 248 243 239 247 244 255 253 255 259 264 270 276 283
251 253 247 239 235 237 236 240 230 236 235 231 220 214 227 250 248 241 241 236 241 243 241 241 244 242 249 260 260 262 269 275 279
251 251 252 250 244 239 243 238 245 240 239 239 234 226 219 209 223 240 235 233 232 242 240 244 242 249 248 256 264 267 267 274 283
255 255 253 255 252 251 250 242 237 246 243 247 241 235 234 234 226 228 235 233 234 237 241 246 247 248 247 254 258 264 270 276 281
Height
1540 1541 1541 1542 1544 1547 1548 1550 1551 1551 1552 1553 1553 1554 1555 1556 1560 1558 1558 1557 1557 1557 1557 1557 1557 1557 1557 1556 1557 1557 1555 1556 1556
1541 1541 1542 1543 1546 1548 1549 1551 1552 1552 1553 1554 1554 1555 1556 1559 1560 1559 1559 1558 1558 1558 1558 1558 1558 1558 1558 1558 1558 1558 1558 1558 1558
1542 1543 1544 1545 1547 1548 1551 1552 1553 1554 1554 1555 1556 1557 1557 1561 1562 1559 1560 1559 1559 1559 1558 1558 1558 1558 1558 1558 1558 1559 1559 1559 1559
1543 1544 1545 1547 1548 1549 1551 1552 1553 1554 1555 1556 1557 1558 1559 1561 1562 1561 1560 1559 1559 1558 1558 1558 1558 1558 1558 1558 1558 1558 1558 1558 1558
1543 1544 1545 1547 1548 1550 1551 1553 1553 1554 1555 1556 1557 1559 1560 1563 1562 1561 1560 1559 1559 1558 1558 1557 1557 1557 1557 1558 1557 1557 1557 1557 1558
1543 1544 1546 1547 1548 1550 1551 1553 1553 1554 1556 1556 1558 1560 1562 1564 1563 1561 1560 1559 1559 1559 1558 1558 1557 1557 1557 1557 1557 1556 1557 1556 1556
1543 1544 1545 1546 1548 1550 1551 1553 1554 1555 1556 1557 1558 1560 1563 1564 1563 1560 1560 1558 1559 1559 1558 1558 1557 1557 1557 1557 1557 1557 1556 1556 1555
1543 1543 1544 1546 1547 1549 1551 1552 1554 1555 1558 1558 1558 1561 1563 1563 1562 1559 1559 1558 1558 1558 1558 1557 1556 1556 1557 1557 1557 1557 1557 1556 1556
1543 1544 1544 1546 1546 1549 1550 1552 1554 1555 1557 1558 1559 1559 1561 1561 1561 1558 1558 1557 1558 1558 1557 1557 1556 1555 1555 1556 1556 1556 1556 1555 1556
1544 1545 1546 1546 1547 1549 1550 1553 1554 1554 1555 1556 1556 1557 1558 1557 1558 1558 1557 1556 1557 1556 1556 1556 1556 1555 1555 1554 1555 1555 1556 1555 1555
1541 1543 1544 1545 1546 1547 1548 1550 1551 1552 1553 1553 1554 1553 1554 1555 1556 1557 1554 1555 1555 1555 1555 1554 1554 1554 1555 1555 1554 1555 1555 1555 1555
1538 1540 1539 1542 1544 1545 1545 1547 1548 1549 1549 1550 1550 1552 1552 1552 1552 1553 1552 1552 1552 1552 1553 1553 1553 1553 1553 1553 1553 1553 1553 1554 1554
1534 1535 1537 1537 1540 1542 1543 1543 1544 1545 1546 1546 1547 1548 1549 1549 1550 1550 1551 1549 1549 1550 1550 1550 1551 1551 1552 1552 1551 1552 1552 1552 1552
1529 1531 1532 1534 1535 1537 1539 1540 1540 1541 1542 1543 1544 1545 1546 1547 1546 1547 1547 1547 1548 1547 1547 1547 1548 1549 1550 1550 1550 1549 1550 1550 1550
1526 1527 1528 1530 1531 1531 1534 1536 1536 1537 1537 1540 1540 1541 1541 1542 1542 1543 1543 1544 1544 1545 1542 1544 1544 1546 1547 1547 1547 1547 1547 1547 1547
1521 1523 1524 1525 1525 1524 1527 1531 1532 1532 1533 1535 1535 1536 1536 1537 1538 1538 1538 1539 1539 1541 1541 1540 1541 1542 1543 1544 1544 1544 1544 1544 1544
1514 1516 1518 1520 1520 1521 1520 1524 1525 1526 1527 1528 1531 1532 1532 1530 1531 1533 1534 1535 1535 1535 1536 1537 1538 1538 1538 1538 1540 1540 1541 1540 1541
1508 1509 1511 1514 1516 1516 1516 1516 1517 1518 1520 1521 1524 1526 1525 1525 1525 1527 1528 1529 1529 1530 1531 1532 1533 1534 1534 1533 1535 1535 1537 1537 1536
1503 1503 1504 1506 1508 1510 1510 1511 1511 1512 1513 1515 1516 1517 1519 1521 1522 1521 1522 1524 1524 1524 1526 1526 1527 1528 1529 1529 1529 1530 1531 1532 1532
1494 1498 1500 1499 1501 1503 1503 1505 1506 1505 1507 1507 1509 1511 1513 1515 1516 1515 1516 1517 1518 1518 1519 1520 1521 1521 1522 1523 1522 1524 1526 1524 1525